Tracking 18816 objects as of 17-October-2017
HD Live streaming from Space Station
objects crossing your sky now

INTELSAT 605

Track INTELSAT 605 now!
INTELSAT 605 is classified as:


NORAD ID: 21653
Int'l Code: 1991-055A
Perigee: 36,039.2 km
Apogee: 36,085.1 km
Inclination: 10.3 °
Period: 1,449.8 minutes
Semi major axis: 42433 km
RCS: 0.754 m2 (medium)
Launch date: August 14, 1991
Source: International Telecommunications Satellite Organization (ITSO)
Launch site: FRENCH GUIANA (FRGUI)

Inclined orbit; 64 C-band, 24 Ku-band; Broadcasting, business services, direct-to-home TV broadcasting, telecommunications, VSAT networks; Atlantic Ocean region.
aabbcc
Your satellite tracking list
Your tracking list is empty





NASA's NSSDC Master Catalog

Two Line Element Set (TLE):
1 21653U 91055A   17289.78590907 -.00000084  00000-0  00000+0 0  9991
2 21653  10.2727  39.8943 0005407 208.4738 151.4768  0.99321951 95535
Source of the keplerian elements: AFSPC